Time,TemperatureF,DewpointF,PressureIn,WindDirection,WindDirectionDegrees,WindSpeedMPH,WindSpeedGustMPH,Humidity,HourlyPrecipIn,Conditions,Clouds,dailyrainin,SoftwareType,DateUTC
2013-01-06 00:05:00,32.7,30.0,29.89,West,271,6.0,8.0,88,0.02,,,0.00,weatherlink.com 1.10,2013-01-06 06:05:00,
2013-01-06 00:21:00,31.7,29.0,29.88,WSW,246,4.0,8.0,88,0.02,,,0.00,weatherlink.com 1.10,2013-01-06 06:21:00,
2013-01-06 00:36:00,30.8,27.0,29.88,West,266,4.0,10.0,86,0.01,,,0.00,weatherlink.com 1.10,2013-01-06 06:36:00,
2013-01-06 00:51:00,30.0,27.0,29.89,WSW,242,4.0,12.0,87,0.01,,,0.00,weatherlink.com 1.10,2013-01-06 06:51:00,
2013-01-06 01:06:00,28.3,24.0,29.89,West,263,4.0,9.0,85,0.00,,,0.00,weatherlink.com 1.10,2013-01-06 07:06:00,
2013-01-06 01:21:00,27.7,24.0,29.89,West,278,4.0,8.0,85,0.00,,,0.00,weatherlink.com 1.10,2013-01-06 07:21:00,
2013-01-06 01:36:00,27.0,23.0,29.90,West,268,3.0,5.0,86,0.00,,,0.00,weatherlink.com 1.10,2013-01-06 07:36:00,
2013-01-06 01:51:00,26.5,22.0,29.90,WNW,290,2.0,5.0,82,0.00,,,0.00,weatherlink.com 1.10,2013-01-06 07:51:00,
2013-01-06 02:06:00,25.8,22.0,29.91,West,272,2.0,4.0,84,0.00,,,0.00,weatherlink.com 1.10,2013-01-06 08:06:00,
2013-01-06 02:21:00,25.1,22.0,29.92,West,269,3.0,6.0,86,0.00,,,0.00,weatherlink.com 1.10,2013-01-06 08:21:00,
2013-01-06 02:36:00,24.2,21.0,29.91,West,267,1.0,6.0,86,0.00,,,0.00,weatherlink.com 1.10,2013-01-06 08:36:00,
2013-01-06 02:51:00,23.5,20.0,29.92,West,267,4.0,5.0,87,0.00,,,0.00,weatherlink.com 1.10,2013-01-06 08:51:00,
2013-01-06 03:06:00,23.1,20.0,29.93,West,265,2.0,4.0,87,0.00,,,0.00,weatherlink.com 1.10,2013-01-06 09:06:00,
2013-01-06 03:21:00,22.9,19.0,29.94,West,274,4.0,5.0,86,0.00,,,0.00,weatherlink.com 1.10,2013-01-06 09:21:00,
2013-01-06 03:36:00,22.4,19.0,29.94,WNW,294,2.0,6.0,85,0.00,,,0.00,weatherlink.com 1.10,2013-01-06 09:36:00,
2013-01-06 03:51:00,21.5,17.0,29.95,WSW,248,2.0,4.0,84,0.00,,,0.00,weatherlink.com 1.10,2013-01-06 09:51:00,
2013-01-06 04:06:00,20.7,17.0,29.95,WNW,286,2.0,5.0,84,0.00,,,0.00,weatherlink.com 1.10,2013-01-06 10:06:00,
2013-01-06 04:21:00,19.8,16.0,29.95,WNW,290,2.0,5.0,85,0.00,,,0.00,weatherlink.com 1.10,2013-01-06 10:21:00,
2013-01-06 04:36:00,19.1,15.0,29.96,WNW,283,2.0,6.0,85,0.00,,,0.00,weatherlink.com 1.10,2013-01-06 10:36:00,
2013-01-06 04:51:00,18.6,15.0,29.97,WNW,282,3.0,5.0,86,0.00,,,0.00,weatherlink.com 1.10,2013-01-06 10:51:00,
2013-01-06 05:06:00,18.0,15.0,29.97,WNW,287,2.0,4.0,86,0.00,,,0.00,weatherlink.com 1.10,2013-01-06 11:06:00,
2013-01-06 05:22:00,17.7,15.0,29.97,WNW,303,2.0,5.0,87,0.00,,,0.00,weatherlink.com 1.10,2013-01-06 11:22:00,
2013-01-06 05:37:00,17.6,14.0,29.98,West,279,2.0,4.0,87,0.00,,,0.00,weatherlink.com 1.10,2013-01-06 11:37:00,
2013-01-06 05:52:00,17.6,14.0,29.99,WNW,291,1.0,4.0,87,0.00,,,0.00,weatherlink.com 1.10,2013-01-06 11:52:00,
2013-01-06 06:07:00,17.4,14.0,30.00,West,276,0.0,5.0,87,0.00,,,0.00,weatherlink.com 1.10,2013-01-06 12:07:00,
2013-01-06 06:22:00,17.3,14.0,30.01,West,280,2.0,5.0,86,0.00,,,0.00,weatherlink.com 1.10,2013-01-06 12:22:00,
2013-01-06 06:37:00,17.0,14.0,30.01,WNW,293,3.0,6.0,87,0.00,,,0.00,weatherlink.com 1.10,2013-01-06 12:37:00,
2013-01-06 06:52:00,16.8,14.0,30.02,West,275,2.0,5.0,87,0.00,,,0.00,weatherlink.com 1.10,2013-01-06 12:52:00,
2013-01-06 07:07:00,16.5,13.0,30.03,WNW,284,2.0,3.0,87,0.00,,,0.00,weatherlink.com 1.10,2013-01-06 13:07:00,
2013-01-06 07:22:00,16.4,14.0,30.04,WNW,297,1.0,3.0,88,0.00,,,0.00,weatherlink.com 1.10,2013-01-06 13:22:00,
2013-01-06 07:37:00,16.6,14.0,30.04,West,274,3.0,6.0,88,0.00,,,0.00,weatherlink.com 1.10,2013-01-06 13:37:00,
2013-01-06 07:52:00,16.7,14.0,30.05,West,276,3.0,5.0,88,0.00,,,0.00,weatherlink.com 1.10,2013-01-06 13:52:00,
2013-01-06 08:07:00,16.9,14.0,30.05,WNW,284,1.0,7.0,88,0.00,,,0.00,weatherlink.com 1.10,2013-01-06 14:07:00,
2013-01-06 08:22:00,17.6,15.0,30.07,WNW,290,3.0,5.0,89,0.00,,,0.00,weatherlink.com 1.10,2013-01-06 14:22:00,
2013-01-06 08:37:00,18.5,16.0,30.07,WNW,299,0.0,6.0,90,0.00,,,0.00,weatherlink.com 1.10,2013-01-06 14:37:00,
2013-01-06 08:52:00,19.2,17.0,30.08,WNW,292,0.0,5.0,89,0.00,,,0.00,weatherlink.com 1.10,2013-01-06 14:52:00,
2013-01-06 09:07:00,19.5,17.0,30.09,WNW,287,0.0,4.0,88,0.00,,,0.00,weatherlink.com 1.10,2013-01-06 15:07:00,
2013-01-06 09:22:00,20.3,17.0,30.10,NW,315,1.0,3.0,87,0.00,,,0.00,weatherlink.com 1.10,2013-01-06 15:22:00,
2013-01-06 09:37:00,20.7,17.0,30.11,WNW,285,1.0,4.0,85,0.00,,,0.00,weatherlink.com 1.10,2013-01-06 15:37:00,
2013-01-06 09:52:00,20.5,17.0,30.12,WNW,300,2.0,4.0,85,0.00,,,0.00,weatherlink.com 1.10,2013-01-06 15:52:00,
2013-01-06 10:07:00,20.7,17.0,30.12,WNW,287,2.0,5.0,85,0.00,,,0.00,weatherlink.com 1.10,2013-01-06 16:07:00,
2013-01-06 10:22:00,21.3,18.0,30.13,WNW,303,2.0,4.0,85,0.00,,,0.00,weatherlink.com 1.10,2013-01-06 16:22:00,
2013-01-06 10:37:00,21.7,18.0,30.13,WNW,296,3.0,5.0,84,0.00,,,0.00,weatherlink.com 1.10,2013-01-06 16:37:00,
2013-01-06 10:52:00,22.2,18.0,30.14,WNW,288,6.0,6.0,84,0.00,,,0.00,weatherlink.com 1.10,2013-01-06 16:52:00,
2013-01-06 11:07:00,22.7,19.0,30.14,WNW,284,3.0,5.0,84,0.00,,,0.00,weatherlink.com 1.10,2013-01-06 17:07:00,
2013-01-06 11:22:00,22.7,19.0,30.14,NW,305,3.0,5.0,84,0.00,,,0.00,weatherlink.com 1.10,2013-01-06 17:22:00,
2013-01-06 11:37:00,23.2,19.0,30.14,WNW,285,2.0,5.0,83,0.00,,,0.00,weatherlink.com 1.10,2013-01-06 17:37:00,
2013-01-06 11:52:00,23.7,19.0,30.14,West,276,1.0,4.0,83,0.00,,,0.00,weatherlink.com 1.10,2013-01-06 17:52:00,
2013-01-06 12:07:00,24.4,20.0,30.14,NW,308,1.0,3.0,82,0.00,,,0.00,weatherlink.com 1.10,2013-01-06 18:07:00,
2013-01-06 12:22:00,25.2,20.0,30.15,West,280,4.0,4.0,80,0.00,,,0.00,weatherlink.com 1.10,2013-01-06 18:22:00,
2013-01-06 12:37:00,24.9,20.0,30.15,WNW,296,3.0,5.0,80,0.00,,,0.00,weatherlink.com 1.10,2013-01-06 18:37:00,
2013-01-06 12:52:00,25.0,20.0,30.15,West,273,3.0,6.0,81,0.00,,,0.00,weatherlink.com 1.10,2013-01-06 18:52:00,
2013-01-06 13:07:00,24.8,20.0,30.17,WNW,300,2.0,5.0,81,0.01,,,0.01,weatherlink.com 1.10,2013-01-06 19:07:00,
2013-01-06 13:22:00,24.9,20.0,30.17,West,267,3.0,4.0,82,0.01,,,0.01,weatherlink.com 1.10,2013-01-06 19:22:00,
2013-01-06 13:37:00,24.2,19.0,30.17,WNW,286,2.0,4.0,82,0.01,,,0.01,weatherlink.com 1.10,2013-01-06 19:37:00,
2013-01-06 14:23:00,24.5,20.0,30.17,WNW,301,4.0,5.0,82,0.00,,,0.01,weatherlink.com 1.10,2013-01-06 20:23:00,
2013-01-06 14:38:00,24.4,20.0,30.17,WNW,292,2.0,4.0,82,0.00,,,0.01,weatherlink.com 1.10,2013-01-06 20:38:00,
2013-01-06 14:53:00,24.9,20.0,30.18,West,278,2.0,3.0,82,0.00,,,0.01,weatherlink.com 1.10,2013-01-06 20:53:00,
2013-01-06 15:08:00,24.9,20.0,30.20,WNW,285,1.0,4.0,81,0.00,,,0.01,weatherlink.com 1.10,2013-01-06 21:08:00,
2013-01-06 15:23:00,24.5,20.0,30.21,WNW,300,2.0,4.0,82,0.00,,,0.01,weatherlink.com 1.10,2013-01-06 21:23:00,
2013-01-06 15:38:00,24.1,19.0,30.22,NW,306,1.0,4.0,82,0.00,,,0.01,weatherlink.com 1.10,2013-01-06 21:38:00,
2013-01-06 15:53:00,23.8,19.0,30.22,WNW,302,1.0,2.0,83,0.00,,,0.01,weatherlink.com 1.10,2013-01-06 21:53:00,
2013-01-06 16:08:00,23.2,19.0,30.22,West,269,1.0,4.0,83,0.00,,,0.01,weatherlink.com 1.10,2013-01-06 22:08:00,
2013-01-06 16:23:00,22.4,18.0,30.23,WNW,284,0.0,2.0,84,0.00,,,0.01,weatherlink.com 1.10,2013-01-06 22:23:00,
2013-01-06 16:38:00,21.7,18.0,30.23,WNW,284,0.0,0.0,85,0.00,,,0.01,weatherlink.com 1.10,2013-01-06 22:38:00,
2013-01-06 16:53:00,20.9,17.0,30.23,WNW,284,0.0,0.0,85,0.00,,,0.01,weatherlink.com 1.10,2013-01-06 22:53:00,
2013-01-06 17:08:00,20.9,17.0,30.24,WNW,284,0.0,2.0,86,0.00,,,0.01,weatherlink.com 1.10,2013-01-06 23:08:00,
2013-01-06 17:23:00,20.4,17.0,30.24,West,263,0.0,2.0,87,0.00,,,0.01,weatherlink.com 1.10,2013-01-06 23:23:00,
2013-01-06 17:38:00,20.1,17.0,30.25,West,260,0.0,2.0,86,0.00,,,0.01,weatherlink.com 1.10,2013-01-06 23:38:00,
2013-01-06 17:53:00,19.6,16.0,30.25,West,263,2.0,3.0,86,0.00,,,0.01,weatherlink.com 1.10,2013-01-06 23:53:00,
2013-01-06 18:08:00,19.5,16.0,30.25,WSW,250,1.0,3.0,87,0.00,,,0.01,weatherlink.com 1.10,2013-01-07 00:08:00,
2013-01-06 18:23:00,19.2,16.0,30.26,SW,234,0.0,2.0,86,0.00,,,0.01,weatherlink.com 1.10,2013-01-07 00:23:00,
2013-01-06 18:38:00,18.8,15.0,30.26,WSW,257,0.0,2.0,86,0.00,,,0.01,weatherlink.com 1.10,2013-01-07 00:38:00,
2013-01-06 18:53:00,17.9,14.0,30.26,WSW,246,1.0,2.0,86,0.00,,,0.01,weatherlink.com 1.10,2013-01-07 00:53:00,
2013-01-06 19:08:00,17.6,14.0,30.26,SW,232,1.0,2.0,86,0.00,,,0.01,weatherlink.com 1.10,2013-01-07 01:08:00,
2013-01-06 19:23:00,17.3,14.0,30.27,WSW,238,2.0,3.0,85,0.00,,,0.01,weatherlink.com 1.10,2013-01-07 01:23:00,
2013-01-06 19:38:00,16.9,13.0,30.27,WSW,237,1.0,3.0,85,0.00,,,0.01,weatherlink.com 1.10,2013-01-07 01:38:00,
2013-01-06 19:53:00,16.7,13.0,30.27,SW,234,2.0,3.0,84,0.00,,,0.01,weatherlink.com 1.10,2013-01-07 01:53:00,
2013-01-06 20:08:00,16.2,12.0,30.27,SW,226,2.0,3.0,83,0.00,,,0.01,weatherlink.com 1.10,2013-01-07 02:08:00,
2013-01-06 20:23:00,16.5,13.0,30.27,SW,215,1.0,3.0,85,0.00,,,0.01,weatherlink.com 1.10,2013-01-07 02:23:00,
2013-01-06 20:38:00,15.9,13.0,30.27,SW,224,2.0,3.0,86,0.00,,,0.01,weatherlink.com 1.10,2013-01-07 02:38:00,
2013-01-06 20:53:00,16.5,13.0,30.27,SW,223,2.0,3.0,85,0.00,,,0.01,weatherlink.com 1.10,2013-01-07 02:53:00,
2013-01-06 21:08:00,16.4,13.0,30.28,SW,230,3.0,4.0,85,0.00,,,0.01,weatherlink.com 1.10,2013-01-07 03:08:00,
2013-01-06 21:23:00,16.0,12.0,30.28,SSW,198,2.0,3.0,83,0.00,,,0.01,weatherlink.com 1.10,2013-01-07 03:23:00,
2013-01-06 21:38:00,15.4,12.0,30.28,SW,223,2.0,5.0,86,0.00,,,0.01,weatherlink.com 1.10,2013-01-07 03:38:00,
2013-01-06 21:53:00,15.9,12.0,30.28,SSW,206,1.0,3.0,85,0.00,,,0.01,weatherlink.com 1.10,2013-01-07 03:53:00,
2013-01-06 22:08:00,16.0,12.0,30.28,SW,217,0.0,2.0,85,0.00,,,0.01,weatherlink.com 1.10,2013-01-07 04:08:00,
2013-01-06 22:23:00,15.8,12.0,30.28,SSW,192,0.0,2.0,85,0.00,,,0.01,weatherlink.com 1.10,2013-01-07 04:23:00,
2013-01-06 22:38:00,15.5,12.0,30.29,SSW,212,2.0,3.0,85,0.00,,,0.01,weatherlink.com 1.10,2013-01-07 04:38:00,
2013-01-06 22:53:00,15.2,11.0,30.28,SSW,205,0.0,3.0,84,0.00,,,0.01,weatherlink.com 1.10,2013-01-07 04:53:00,
2013-01-06 23:23:00,15.0,12.0,30.28,South,190,1.0,3.0,86,0.00,,,0.01,weatherlink.com 1.10,2013-01-07 05:23:00,
2013-01-06 23:38:00,14.3,11.0,30.27,SSW,211,2.0,3.0,85,0.00,,,0.01,weatherlink.com 1.10,2013-01-07 05:38:00,
2013-01-06 23:53:00,13.8,11.0,30.27,South,190,0.0,3.0,87,0.00,,,0.01,weatherlink.com 1.10,2013-01-07 05:53:00,